CRK640 RJFF-VHHH

Flight info

Callsign CRK640
Flight time N/A
Altitude 34000
Route YAMGA VEMRA Y506 HKC A1 OSTAR/N0464F360 A1 ELATO V522 ABBEY
Aircraft A320/M-SDE3FGHIRWY/LB1

Departure

Time 2026-04-30 08:43
Airport Fukuoka Airport (RJFF)

Arrival

Time N/A
Airport Hong Kong International Airport (VHHH)
Time Latitude Longitude Altitude Speed Heading
2026-04-30 08:33 33.58632 130.44482 31 ft 0 kts 244°
2026-04-30 08:34 33.58635 130.44489 31 ft 4 kts 245°
2026-04-30 08:34 33.58644 130.44520 31 ft 4 kts 263°
2026-04-30 08:34 33.58645 130.44548 31 ft 1 kts 274°
2026-04-30 08:35 33.58645 130.44553 31 ft 0 kts 274°
2026-04-30 08:37 33.58645 130.44548 31 ft 4 kts 274°
2026-04-30 08:38 33.58683 130.44510 30 ft 9 kts 320°
2026-04-30 08:38 33.58715 130.44479 30 ft 3 kts 322°
2026-04-30 08:38 33.58760 130.44468 30 ft 14 kts
2026-04-30 08:38 33.58883 130.44445 29 ft 17 kts 14°
2026-04-30 08:39 33.58931 130.44527 29 ft 10 kts 53°
2026-04-30 08:39 33.58988 130.44555 29 ft 11 kts
2026-04-30 08:39 33.59057 130.44526 28 ft 9 kts 324°
2026-04-30 08:39 33.59099 130.44496 28 ft 5 kts 332°
2026-04-30 08:40 33.59126 130.44478 27 ft 7 kts 332°
2026-04-30 08:40 33.59209 130.44419 27 ft 16 kts 328°
2026-04-30 08:40 33.59301 130.44355 26 ft 15 kts 330°
2026-04-30 08:40 33.59406 130.44286 27 ft 20 kts 333°
2026-04-30 08:41 33.59541 130.44251 26 ft 19 kts 351°
2026-04-30 08:41 33.59653 130.44265 24 ft 15 kts 42°
2026-04-30 08:41 33.59649 130.44349 25 ft 8 kts 144°
2026-04-30 08:41 33.59644 130.44353 24 ft 0 kts 148°
2026-04-30 08:42 33.59563 130.44415 26 ft 45 kts 147°
2026-04-30 08:42 33.59082 130.44735 28 ft 108 kts 150°
2026-04-30 08:42 33.58281 130.45261 39 ft 156 kts 153°
2026-04-30 08:42 33.57281 130.45883 475 ft 160 kts 149°
2026-04-30 08:43 33.56321 130.46533 1055 ft 161 kts 148°
2026-04-30 08:43 33.55324 130.47185 1668 ft 161 kts 150°
2026-04-30 08:43 33.54300 130.47833 2046 ft 178 kts 151°
2026-04-30 08:43 33.53137 130.48564 2252 ft 200 kts 152°
2026-04-30 08:44 33.51826 130.49386 2485 ft 225 kts 152°
2026-04-30 08:44 33.50368 130.50298 2811 ft 246 kts 152°
2026-04-30 08:44 33.48820 130.51261 3495 ft 253 kts 154°
2026-04-30 08:44 33.47155 130.52012 4259 ft 259 kts 162°
2026-04-30 08:45 33.45423 130.52675 5026 ft 264 kts 163°
2026-04-30 08:45 33.43655 130.53331 5793 ft 268 kts 164°
2026-04-30 08:45 33.41856 130.53992 6589 ft 272 kts 164°
2026-04-30 08:45 33.40040 130.54661 7303 ft 275 kts 164°
2026-04-30 08:46 33.38210 130.55341 8053 ft 276 kts 165°
2026-04-30 08:46 33.36372 130.56028 8829 ft 277 kts 165°
2026-04-30 08:46 33.34536 130.56715 9627 ft 278 kts 166°
2026-04-30 08:46 33.32680 130.57408 10264 ft 284 kts 166°
2026-04-30 08:47 33.30714 130.58133 10426 ft 307 kts 166°
2026-04-30 08:47 33.28594 130.58913 10548 ft 329 kts 166°
2026-04-30 08:47 33.26330 130.59751 10672 ft 350 kts 166°
2026-04-30 08:47 33.23950 130.60636 10920 ft 364 kts 166°
2026-04-30 08:48 33.21508 130.61549 11420 ft 370 kts 166°
2026-04-30 08:48 33.19044 130.62476 11980 ft 374 kts 167°
2026-04-30 08:48 33.16548 130.63414 12544 ft 378 kts 167°
2026-04-30 08:48 33.14034 130.64353 13111 ft 382 kts 168°
2026-04-30 08:49 33.11477 130.65303 13669 ft 385 kts 168°
2026-04-30 08:49 33.08914 130.66254 14158 ft 388 kts 168°
2026-04-30 08:49 33.06322 130.67217 14677 ft 391 kts 168°
2026-04-30 08:49 33.03717 130.68186 15203 ft 393 kts 168°
2026-04-30 08:50 33.01100 130.69155 15735 ft 395 kts 169°
2026-04-30 08:50 32.98465 130.70127 16265 ft 397 kts 169°
2026-04-30 08:50 32.95855 130.71088 16776 ft 399 kts 169°
2026-04-30 08:50 32.93175 130.72035 17285 ft 399 kts 173°
2026-04-30 08:51 32.90456 130.72531 17773 ft 394 kts 182°
2026-04-30 08:51 32.87730 130.72465 18242 ft 390 kts 191°
2026-04-30 08:51 32.85027 130.72127 18662 ft 391 kts 191°
2026-04-30 08:51 32.82316 130.71790 19087 ft 393 kts 191°
2026-04-30 08:52 32.79592 130.71454 19491 ft 394 kts 191°
2026-04-30 08:52 32.76853 130.71120 19885 ft 396 kts 191°
2026-04-30 08:52 32.74095 130.70789 20272 ft 397 kts 191°
2026-04-30 08:52 32.71342 130.70462 20641 ft 399 kts 191°
2026-04-30 08:53 32.68606 130.70137 20993 ft 401 kts 191°
2026-04-30 08:53 32.65825 130.69801 21348 ft 402 kts 191°
2026-04-30 08:53 32.63042 130.69463 21693 ft 403 kts 191°
2026-04-30 08:53 32.60242 130.69120 22032 ft 404 kts 191°
2026-04-30 08:54 32.57436 130.68781 22348 ft 406 kts 191°
2026-04-30 08:54 32.54635 130.68444 22651 ft 407 kts 191°
2026-04-30 08:54 32.51796 130.68103 22959 ft 409 kts 191°
2026-04-30 08:54 32.48963 130.67762 23243 ft 410 kts 191°
2026-04-30 08:55 32.46118 130.67418 23510 ft 411 kts 191°
2026-04-30 08:55 32.43270 130.67072 23728 ft 413 kts 191°
2026-04-30 08:55 32.40414 130.66724 23933 ft 414 kts 191°
2026-04-30 08:55 32.37541 130.66373 24151 ft 416 kts 192°
2026-04-30 08:56 32.34658 130.66025 24345 ft 417 kts 192°
2026-04-30 08:56 32.31765 130.65675 24537 ft 419 kts 192°
2026-04-30 08:56 32.28859 130.65326 24743 ft 420 kts 192°
2026-04-30 08:56 32.25946 130.64978 24924 ft 422 kts 192°
2026-04-30 08:57 32.23013 130.64628 25130 ft 423 kts 192°
2026-04-30 08:57 32.20083 130.64282 25326 ft 425 kts 192°
2026-04-30 08:57 32.17136 130.63935 25478 ft 426 kts 192°
2026-04-30 08:57 32.14186 130.63586 25646 ft 427 kts 192°
2026-04-30 08:58 32.11219 130.63233 25840 ft 428 kts 192°
2026-04-30 08:58 32.08239 130.62877 26025 ft 430 kts 193°
2026-04-30 08:58 32.05299 130.62525 26189 ft 431 kts 193°
2026-04-30 08:58 32.02309 130.62166 26386 ft 431 kts 193°
2026-04-30 08:59 31.99317 130.61809 26626 ft 430 kts 193°
2026-04-30 08:59 31.96345 130.61456 26864 ft 430 kts 193°
2026-04-30 08:59 31.93367 130.61103 27094 ft 429 kts 193°
2026-04-30 08:59 31.90393 130.60749 27333 ft 429 kts 193°
2026-04-30 09:00 31.87423 130.60394 27547 ft 429 kts 194°
2026-04-30 09:00 31.84443 130.60037 27786 ft 429 kts 194°
2026-04-30 09:00 31.81483 130.59686 28035 ft 428 kts 194°
2026-04-30 09:00 31.78515 130.59336 28291 ft 428 kts 194°
2026-04-30 09:01 31.75599 130.58973 28565 ft 424 kts 197°
2026-04-30 09:01 31.72773 130.58171 28819 ft 412 kts 207°
2026-04-30 09:01 31.70196 130.56800 29078 ft 403 kts 216°
2026-04-30 09:01 31.67926 130.54926 29356 ft 395 kts 225°
2026-04-30 09:02 31.64354 130.50133 29910 ft 388 kts 235°
2026-04-30 09:02 31.62707 130.47624 30165 ft 387 kts 235°
2026-04-30 09:02 31.61061 130.45132 30413 ft 386 kts 235°
2026-04-30 09:03 31.59413 130.42646 30666 ft 384 kts 235°
2026-04-30 09:03 31.57778 130.40180 30926 ft 382 kts 234°
2026-04-30 09:03 31.56151 130.37724 31196 ft 380 kts 234°
2026-04-30 09:03 31.54547 130.35304 31452 ft 379 kts 234°
2026-04-30 09:04 31.52934 130.32871 31712 ft 377 kts 234°
2026-04-30 09:04 31.51331 130.30452 31958 ft 376 kts 234°
2026-04-30 09:04 31.49729 130.28032 32200 ft 374 kts 234°
2026-04-30 09:04 31.48138 130.25627 32457 ft 372 kts 234°
2026-04-30 09:05 31.46553 130.23236 32715 ft 371 kts 234°
2026-04-30 09:05 31.44973 130.20854 32969 ft 369 kts 234°
2026-04-30 09:05 31.43402 130.18489 33226 ft 367 kts 234°
2026-04-30 09:05 31.41836 130.16133 33485 ft 365 kts 233°
2026-04-30 09:06 31.40277 130.13791 33725 ft 365 kts 233°
2026-04-30 09:06 31.38717 130.11447 33854 ft 365 kts 233°
2026-04-30 09:06 31.35600 130.06736 33879 ft 367 kts 234°
2026-04-30 09:07 31.32489 130.01997 33878 ft 367 kts 233°
2026-04-30 09:07 31.29367 129.97264 33879 ft 367 kts 233°
2026-04-30 09:08 31.26236 129.92548 33884 ft 367 kts 233°
2026-04-30 09:08 31.23091 129.87843 33889 ft 368 kts 233°
2026-04-30 09:09 31.19946 129.83128 33895 ft 368 kts 233°
2026-04-30 09:09 31.16796 129.78415 33898 ft 368 kts 233°
2026-04-30 09:10 31.13662 129.73751 33902 ft 368 kts 233°
2026-04-30 09:10 31.10501 129.69037 33907 ft 368 kts 233°
2026-04-30 09:11 31.07881 129.65130 33906 ft 368 kts 233°
2026-04-30 09:11 31.04721 129.60436 33903 ft 368 kts 233°
2026-04-30 09:12 31.01559 129.55742 33901 ft 368 kts 233°
2026-04-30 09:12 30.98387 129.51035 33899 ft 368 kts 233°
2026-04-30 09:13 30.95226 129.46341 33902 ft 368 kts 233°
2026-04-30 09:13 30.92072 129.41672 33904 ft 369 kts 233°
2026-04-30 09:14 30.88897 129.36982 33904 ft 368 kts 233°
2026-04-30 09:14 30.85728 129.32294 33908 ft 368 kts 233°
2026-04-30 09:15 30.82554 129.27606 33911 ft 368 kts 233°
2026-04-30 09:15 30.79378 129.22930 33907 ft 368 kts 233°
2026-04-30 09:16 30.76204 129.18247 33908 ft 368 kts 233°
2026-04-30 09:16 30.73099 129.13523 33910 ft 368 kts 234°
2026-04-30 09:17 30.70015 129.08783 33905 ft 368 kts 234°
2026-04-30 09:17 30.66931 129.04080 33904 ft 368 kts 234°
2026-04-30 09:18 30.63820 128.99355 33908 ft 368 kts 234°
2026-04-30 09:18 30.60704 128.94631 33910 ft 368 kts 234°
2026-04-30 09:19 30.57583 128.89908 33909 ft 369 kts 234°
2026-04-30 09:19 30.54463 128.85183 33908 ft 369 kts 234°
2026-04-30 09:20 30.51339 128.80460 33911 ft 369 kts 233°
2026-04-30 09:20 30.48206 128.75730 33911 ft 370 kts 233°
2026-04-30 09:21 30.45073 128.70996 33914 ft 370 kts 233°
2026-04-30 09:21 30.41921 128.66270 33918 ft 371 kts 233°
2026-04-30 09:22 30.38771 128.61530 33920 ft 371 kts 233°
2026-04-30 09:22 30.35627 128.56797 33927 ft 371 kts 233°
2026-04-30 09:23 30.32469 128.52057 33932 ft 371 kts 233°
2026-04-30 09:23 30.29312 128.47332 33937 ft 371 kts 233°
2026-04-30 09:24 30.26148 128.42603 33939 ft 371 kts 233°
2026-04-30 09:24 30.23006 128.37908 33944 ft 372 kts 233°
2026-04-30 09:25 30.19846 128.33174 33948 ft 372 kts 233°
2026-04-30 09:25 30.16681 128.28443 33953 ft 372 kts 233°
2026-04-30 09:26 30.13510 128.23717 33951 ft 372 kts 233°
2026-04-30 09:26 30.10331 128.18998 33959 ft 372 kts 233°
2026-04-30 09:27 30.07151 128.14276 33962 ft 373 kts 233°
2026-04-30 09:27 30.03967 128.09543 33959 ft 373 kts 233°
2026-04-30 09:28 30.00779 128.04820 33965 ft 373 kts 233°
2026-04-30 09:28 29.97583 128.00093 33969 ft 374 kts 233°
2026-04-30 09:29 29.94384 127.95364 33974 ft 374 kts 233°
2026-04-30 09:29 29.91187 127.90634 33977 ft 374 kts 233°
2026-04-30 09:30 29.87983 127.85911 33982 ft 374 kts 233°
2026-04-30 09:30 29.84736 127.81226 33987 ft 375 kts 232°
2026-04-30 09:31 29.81339 127.76669 33985 ft 375 kts 231°
2026-04-30 09:31 29.77906 127.72142 33986 ft 375 kts 231°
2026-04-30 09:32 29.74496 127.67607 33988 ft 375 kts 231°
2026-04-30 09:32 29.71097 127.63046 33988 ft 375 kts 231°
2026-04-30 09:33 29.67694 127.58486 33988 ft 375 kts 231°
2026-04-30 09:33 29.64283 127.53934 33989 ft 376 kts 231°
2026-04-30 09:34 29.60870 127.49390 33991 ft 376 kts 231°
2026-04-30 09:34 29.57487 127.44817 33992 ft 375 kts 232°
2026-04-30 09:35 29.54266 127.40153 34000 ft 375 kts 233°
2026-04-30 09:35 29.51059 127.35423 34000 ft 375 kts 233°
2026-04-30 09:36 29.47830 127.30721 34005 ft 375 kts 233°
2026-04-30 09:36 29.44587 127.26040 34004 ft 375 kts 233°
2026-04-30 09:37 29.41339 127.21355 33997 ft 375 kts 233°
2026-04-30 09:37 29.38092 127.16676 34001 ft 375 kts 233°
2026-04-30 09:38 29.34830 127.11991 34001 ft 376 kts 233°
2026-04-30 09:38 29.31565 127.07310 34003 ft 376 kts 233°
2026-04-30 09:39 29.28300 127.02613 34009 ft 376 kts 233°
2026-04-30 09:39 29.25039 126.97927 34012 ft 376 kts 233°
2026-04-30 09:40 29.21792 126.93264 34015 ft 377 kts 233°
2026-04-30 09:40 29.18520 126.88579 34017 ft 377 kts 233°
2026-04-30 09:41 29.15238 126.83901 34020 ft 377 kts 233°
2026-04-30 09:41 29.11965 126.79222 34024 ft 377 kts 233°
2026-04-30 09:42 29.08687 126.74542 34015 ft 377 kts 233°
2026-04-30 09:42 29.05403 126.69866 34011 ft 377 kts 233°
2026-04-30 09:43 29.02113 126.65202 34015 ft 377 kts 233°
2026-04-30 09:43 28.98824 126.60526 34009 ft 378 kts 233°
2026-04-30 09:44 28.95518 126.55850 34014 ft 378 kts 233°
2026-04-30 09:44 28.92120 126.51260 34021 ft 379 kts 232°
2026-04-30 09:45 28.88694 126.46687 34021 ft 379 kts 232°
2026-04-30 09:45 28.85272 126.42101 34021 ft 379 kts 232°
2026-04-30 09:46 28.81860 126.37508 34024 ft 380 kts 232°
2026-04-30 09:46 28.78468 126.32937 34029 ft 380 kts 232°
2026-04-30 09:47 28.75049 126.28342 34027 ft 380 kts 232°
2026-04-30 09:47 28.71624 126.23744 34026 ft 380 kts 232°
2026-04-30 09:48 28.68190 126.19154 34021 ft 381 kts 232°
2026-04-30 09:48 28.64754 126.14558 34019 ft 381 kts 232°
2026-04-30 09:49 28.61357 126.09914 34017 ft 381 kts 233°
2026-04-30 09:49 28.58042 126.05198 34019 ft 382 kts 234°
2026-04-30 09:50 28.54730 126.00482 34023 ft 382 kts 234°
2026-04-30 09:50 28.51386 125.95763 34028 ft 383 kts 233°
2026-04-30 09:51 28.48030 125.91060 34032 ft 383 kts 233°
2026-04-30 09:51 28.44674 125.86344 34035 ft 384 kts 233°
2026-04-30 09:52 28.41321 125.81627 34036 ft 384 kts 233°
2026-04-30 09:52 28.37984 125.76935 34034 ft 384 kts 233°
2026-04-30 09:53 28.34617 125.72221 34035 ft 385 kts 233°
2026-04-30 09:53 28.31239 125.67503 34042 ft 385 kts 233°
2026-04-30 09:54 28.27856 125.62789 34044 ft 386 kts 233°
2026-04-30 09:54 28.24473 125.58064 34042 ft 386 kts 233°
2026-04-30 09:55 28.21090 125.53344 34056 ft 385 kts 233°
2026-04-30 09:55 28.17706 125.48625 34050 ft 386 kts 233°
2026-04-30 09:56 28.14322 125.43909 34050 ft 386 kts 233°
2026-04-30 09:56 28.10933 125.39194 34052 ft 386 kts 233°
2026-04-30 09:57 28.07539 125.34479 34046 ft 387 kts 233°
2026-04-30 09:57 28.04136 125.29760 34048 ft 387 kts 233°
2026-04-30 09:58 28.01296 125.25830 34055 ft 388 kts 233°
2026-04-30 09:58 27.97875 125.21099 34052 ft 389 kts 233°
2026-04-30 09:59 27.90921 125.11487 34075 ft 400 kts 233°
2026-04-30 10:00 27.85617 125.04162 34074 ft 405 kts 233°
2026-04-30 10:01 27.80223 124.96758 34080 ft 408 kts 233°
2026-04-30 10:02 27.75062 124.89674 34080 ft 410 kts 233°
2026-04-30 10:02 27.71437 124.84692 34082 ft 411 kts 233°
2026-04-30 10:03 27.67801 124.79699 34081 ft 412 kts 233°
2026-04-30 10:03 27.64147 124.74709 34086 ft 413 kts 233°
2026-04-30 10:04 27.60516 124.69732 34085 ft 414 kts 233°
2026-04-30 10:04 27.56855 124.64711 34091 ft 415 kts 233°
2026-04-30 10:05 27.53180 124.59690 34096 ft 415 kts 233°
2026-04-30 10:05 27.49497 124.54667 34092 ft 415 kts 233°
2026-04-30 10:06 27.45834 124.49666 34083 ft 416 kts 233°
2026-04-30 10:06 27.42187 124.44708 34894 ft 394 kts 233°
2026-04-30 10:06 27.40451 124.42351 34725 ft 393 kts 233°
2026-04-30 10:07 27.38686 124.39954 34244 ft 402 kts 233°
2026-04-30 10:07 27.36888 124.37508 34082 ft 409 kts 233°
2026-04-30 10:07 27.35091 124.35061 34089 ft 411 kts 233°
2026-04-30 10:08 27.31428 124.30086 34096 ft 414 kts 232°
2026-04-30 10:08 27.27727 124.25082 34093 ft 417 kts 232°
2026-04-30 10:09 27.24014 124.20051 34090 ft 419 kts 232°
2026-04-30 10:09 27.20290 124.15001 34091 ft 420 kts 233°
2026-04-30 10:10 27.16552 124.09948 34090 ft 421 kts 232°
2026-04-30 10:10 27.12815 124.04916 34091 ft 422 kts 232°
2026-04-30 10:11 27.09053 123.99851 34088 ft 422 kts 232°
2026-04-30 10:11 27.05271 123.94802 34086 ft 423 kts 232°
2026-04-30 10:12 27.01462 123.89749 34081 ft 424 kts 232°
2026-04-30 10:12 26.97654 123.84701 34080 ft 424 kts 232°
2026-04-30 10:13 26.93863 123.79686 34080 ft 425 kts 232°
2026-04-30 10:13 26.90040 123.74629 34078 ft 425 kts 232°
2026-04-30 10:14 26.86208 123.69554 34077 ft 426 kts 232°
2026-04-30 10:14 26.80450 123.61952 34077 ft 427 kts 232°
2026-04-30 10:15 26.76635 123.56908 34077 ft 428 kts 232°
2026-04-30 10:15 26.72781 123.51829 34078 ft 428 kts 232°
2026-04-30 10:16 26.68913 123.46749 34075 ft 429 kts 232°
2026-04-30 10:17 26.63101 123.39108 34076 ft 430 kts 232°
2026-04-30 10:17 26.57260 123.31454 34075 ft 431 kts 232°
2026-04-30 10:18 26.53366 123.26355 34077 ft 432 kts 232°
2026-04-30 10:19 26.47534 123.18723 34083 ft 433 kts 232°
2026-04-30 10:19 26.43608 123.13602 34083 ft 434 kts 232°
2026-04-30 10:20 26.39669 123.08479 34088 ft 435 kts 232°
2026-04-30 10:20 26.33767 123.00789 34101 ft 435 kts 232°
2026-04-30 10:21 26.29824 122.95655 34090 ft 435 kts 232°
2026-04-30 10:21 26.25879 122.90531 34086 ft 436 kts 232°
2026-04-30 10:22 26.21979 122.85472 34530 ft 426 kts 232°
2026-04-30 10:22 26.20067 122.82999 34917 ft 419 kts 232°
2026-04-30 10:22 26.18171 122.80549 35191 ft 416 kts 232°
2026-04-30 10:23 26.16287 122.78113 35400 ft 414 kts 232°
2026-04-30 10:23 26.14407 122.75681 35574 ft 413 kts 232°
2026-04-30 10:23 26.12535 122.73256 35733 ft 413 kts 232°
2026-04-30 10:23 26.10663 122.70834 35885 ft 412 kts 232°
2026-04-30 10:24 26.08790 122.68416 36044 ft 412 kts 232°
2026-04-30 10:24 26.06915 122.65996 36090 ft 412 kts 232°
2026-04-30 10:24 26.03175 122.61172 36092 ft 412 kts 232°
2026-04-30 10:25 25.99431 122.56348 36095 ft 417 kts 232°
2026-04-30 10:25 25.95620 122.51435 36094 ft 421 kts 232°
2026-04-30 10:26 25.91779 122.46485 36095 ft 424 kts 232°
2026-04-30 10:26 25.87907 122.41510 36090 ft 427 kts 232°
2026-04-30 10:27 25.84008 122.36519 36092 ft 428 kts 231°
2026-04-30 10:27 25.80091 122.31509 36084 ft 430 kts 231°
2026-04-30 10:28 25.76195 122.26515 36077 ft 431 kts 231°
2026-04-30 10:28 25.72265 122.21477 36085 ft 432 kts 231°
2026-04-30 10:29 25.68323 122.16434 36078 ft 433 kts 231°
2026-04-30 10:29 25.64361 122.11385 36078 ft 434 kts 231°
2026-04-30 10:30 25.61067 122.07187 36083 ft 434 kts 231°
2026-04-30 10:31 25.60013 122.05846 36083 ft 435 kts 231°
2026-04-30 10:31 25.56031 122.00771 36084 ft 436 kts 231°
2026-04-30 10:32 25.52081 121.95721 36076 ft 437 kts 231°
2026-04-30 10:32 25.48086 121.90641 36076 ft 437 kts 231°
2026-04-30 10:33 25.44106 121.85595 36074 ft 438 kts 231°
2026-04-30 10:33 25.40090 121.80507 36076 ft 439 kts 231°
2026-04-30 10:34 25.36075 121.75424 36077 ft 439 kts 231°
2026-04-30 10:34 25.32047 121.70339 36076 ft 440 kts 231°
2026-04-30 10:35 25.28011 121.65242 36077 ft 440 kts 231°
2026-04-30 10:35 25.23975 121.60155 36082 ft 441 kts 231°
2026-04-30 10:36 25.19932 121.55061 36088 ft 440 kts 231°
2026-04-30 10:36 25.16481 121.50751 36093 ft 440 kts 230°
2026-04-30 10:37 25.12489 121.45610 36093 ft 441 kts 232°
2026-04-30 10:37 25.08572 121.40430 36085 ft 442 kts 232°
2026-04-30 10:38 25.04597 121.35236 36098 ft 442 kts 231°
2026-04-30 10:38 25.00600 121.30063 36102 ft 443 kts 231°
2026-04-30 10:39 24.96595 121.24892 36106 ft 444 kts 231°
2026-04-30 10:39 24.92601 121.19744 36100 ft 444 kts 231°
2026-04-30 10:40 24.88579 121.14573 36099 ft 445 kts 231°
2026-04-30 10:40 24.84556 121.09398 36093 ft 445 kts 231°
2026-04-30 10:41 24.80534 121.04217 36089 ft 445 kts 231°
2026-04-30 10:41 24.76505 120.99019 36083 ft 446 kts 231°
2026-04-30 10:42 24.72469 120.93825 36078 ft 446 kts 231°
2026-04-30 10:42 24.68425 120.88643 36078 ft 447 kts 231°
2026-04-30 10:43 24.64379 120.83470 36076 ft 447 kts 231°
2026-04-30 10:43 24.63027 120.81742 36075 ft 447 kts 231°